When you browse on this site, cookies collect data to enhance your experience and personalize the content and advertising you see.
Visit our Privacy Policy to learn more. By continuing to use the site, you agree to this use of cookies and data.
  • în România
  • Lista ţărilor
  • Pe 7 zile
  • Temperatura apei
  • Hartă satelitară
  • Meteo pe hartă
  • Widget-uri
  • user-avatar
    Intrare

    Meteo pe oră la Proshkovo

    Astăzi, 23 Iulie, Marţi

    Timp Temperatura Precipitaţii Vânt Presiune Umiditate
    00:00 +16°C° 0 mm 1 m/s 747 mmHg 85%
    01:00 +16°C° 0 mm 1 m/s 747 mmHg 87%
    02:00 +15°C° 0 mm 1 m/s 747 mmHg 90%
    03:00 +15°C° 0 mm 1 m/s 747 mmHg 90%
    04:00 +15°C° 0 mm 1 m/s 747 mmHg 90%
    05:00 +15°C° 0 mm 1 m/s 747 mmHg 90%
    06:00 +17°C° 0 mm 2 m/s 747 mmHg 86%
    07:00 +18°C° 0 mm 2 m/s 747 mmHg 82%
    08:00 +19°C° 0 mm 2 m/s 747 mmHg 78%
    09:00 +20°C° 0.1 mm 2 m/s 747 mmHg 72%
    10:00 +22°C° 0.1 mm 3 m/s 747 mmHg 66%
    11:00 +24°C° 0.1 mm 3 m/s 747 mmHg 59%
    12:00 +24°C° 0.2 mm 3 m/s 747 mmHg 59%
    13:00 +25°C° 0.2 mm 3 m/s 747 mmHg 60%
    14:00 +25°C° 0.2 mm 3 m/s 747 mmHg 60%
    15:00 +24°C° 0.3 mm 3 m/s 747 mmHg 63%
    16:00 +24°C° 0.3 mm 3 m/s 747 mmHg 67%
    17:00 +24°C° 0.3 mm 3 m/s 747 mmHg 71%
    18:00 +21°C° 0.2 mm 2 m/s 747 mmHg 77%
    19:00 +19°C° 0.2 mm 2 m/s 747 mmHg 83%
    20:00 +17°C° 0.2 mm 2 m/s 747 mmHg 89%
    21:00 +17°C° 0 mm 2 m/s 747 mmHg 90%
    22:00 +16°C° 0 mm 2 m/s 748 mmHg 91%
    23:00 +15°C° 0 mm 1 m/s 748 mmHg 93%

    Mâine, 24 Iulie, Miercuri

    Timp Temperatura Precipitaţii Vânt Presiune Umiditate
    00:00 +15°C° 0 mm 2 m/s 748 mmHg 93%
    01:00 +14°C° 0 mm 2 m/s 748 mmHg 93%
    02:00 +14°C° 0 mm 2 m/s 748 mmHg 94%
    03:00 +13°C° 0 mm 2 m/s 748 mmHg 93%
    04:00 +13°C° 0 mm 2 m/s 748 mmHg 93%
    05:00 +13°C° 0 mm 2 m/s 748 mmHg 93%
    06:00 +15°C° 0 mm 2 m/s 748 mmHg 85%
    07:00 +17°C° 0 mm 2 m/s 749 mmHg 78%
    08:00 +18°C° 0 mm 2 m/s 749 mmHg 71%
    09:00 +20°C° 0 mm 3 m/s 749 mmHg 64%
    10:00 +21°C° 0 mm 4 m/s 749 mmHg 57%
    11:00 +23°C° 0 mm 4 m/s 749 mmHg 50%
    12:00 +23°C° 0 mm 4 m/s 749 mmHg 50%
    13:00 +23°C° 0 mm 5 m/s 749 mmHg 50%
    14:00 +23°C° 0 mm 5 m/s 749 mmHg 51%
    15:00 +22°C° 0 mm 5 m/s 749 mmHg 53%
    16:00 +22°C° 0 mm 5 m/s 749 mmHg 56%
    17:00 +21°C° 0 mm 4 m/s 749 mmHg 58%
    18:00 +19°C° 0 mm 3 m/s 749 mmHg 66%
    19:00 +17°C° 0 mm 3 m/s 749 mmHg 73%
    20:00 +16°C° 0 mm 2 m/s 749 mmHg 80%
    21:00 +15°C° 0 mm 2 m/s 749 mmHg 84%
    22:00 +14°C° 0 mm 2 m/s 749 mmHg 88%
    23:00 +13°C° 0 mm 2 m/s 749 mmHg 91%

    Poimâine, 25 Iulie, Joi

    Timp Temperatura Precipitaţii Vânt Presiune Umiditate
    00:00 +13°C° 0 mm 2 m/s 749 mmHg 92%
    01:00 +12°C° 0 mm 2 m/s 749 mmHg 93%
    02:00 +10°C° 0 mm 2 m/s 749 mmHg 94%
    03:00 +12°C° 0 mm 2 m/s 748 mmHg 94%
    04:00 +11°C° 0 mm 3 m/s 748 mmHg 94%
    05:00 +11°C° 0 mm 3 m/s 748 mmHg 94%
    06:00 +11°C° 0.8 mm 3 m/s 748 mmHg 95%
    07:00 +12°C° 0.8 mm 3 m/s 748 mmHg 96%
    08:00 +12°C° 0.8 mm 3 m/s 748 mmHg 98%
    09:00 +12°C° 1.6 mm 3 m/s 748 mmHg 98%
    10:00 +14°C° 1.6 mm 2 m/s 748 mmHg 98%
    11:00 +14°C° 1.6 mm 1 m/s 748 mmHg 98%
    12:00 +16°C° 0 mm 1 m/s 748 mmHg 92%
    13:00 +19°C° 0 mm 1 m/s 748 mmHg 85%
    14:00 +21°C° 0 mm 1 m/s 749 mmHg 78%
    15:00 +22°C° 0.1 mm 1 m/s 749 mmHg 78%
    16:00 +21°C° 0.1 mm 2 m/s 749 mmHg 77%
    17:00 +23°C° 0.1 mm 2 m/s 749 mmHg 77%
    18:00 +21°C° 0.3 mm 2 m/s 749 mmHg 83%
    19:00 +20°C° 0.3 mm 2 m/s 749 mmHg 89%
    20:00 +18°C° 0.3 mm 2 m/s 750 mmHg 95%
    21:00 +18°C° 0.1 mm 2 m/s 750 mmHg 96%
    22:00 +18°C° 0.1 mm 2 m/s 750 mmHg 97%
    23:00 +17°C° 0.1 mm 2 m/s 750 mmHg 98%

    26 Iulie, Vineri

    Timp Temperatura Precipitaţii Vânt Presiune Umiditate
    00:00 +17°C° 0 mm 2 m/s 751 mmHg 98%
    01:00 +17°C° 0 mm 2 m/s 751 mmHg 98%
    02:00 +17°C° 0 mm 2 m/s 751 mmHg 98%
    03:00 +17°C° 0 mm 2 m/s 752 mmHg 98%
    04:00 +17°C° 0 mm 2 m/s 752 mmHg 98%
    05:00 +17°C° 0 mm 2 m/s 752 mmHg 98%
    06:00 +18°C° 0 mm 3 m/s 752 mmHg 92%
    07:00 +19°C° 0 mm 3 m/s 752 mmHg 87%
    08:00 +20°C° 0 mm 4 m/s 753 mmHg 82%
    09:00 +22°C° 0 mm 4 m/s 753 mmHg 74%
    10:00 +25°C° 0 mm 4 m/s 753 mmHg 66%
    11:00 +27°C° 0 mm 4 m/s 753 mmHg 58%
    12:00 +27°C° 0 mm 4 m/s 753 mmHg 57%
    13:00 +28°C° 0 mm 4 m/s 752 mmHg 55%
    14:00 +29°C° 0 mm 4 m/s 752 mmHg 54%
    15:00 +28°C° 0 mm 3 m/s 752 mmHg 57%
    16:00 +28°C° 0 mm 3 m/s 752 mmHg 59%
    17:00 +28°C° 0 mm 3 m/s 752 mmHg 62%
    18:00 +26°C° 0 mm 2 m/s 752 mmHg 69%
    19:00 +24°C° 0 mm 2 m/s 752 mmHg 76%
    20:00 +23°C° 0 mm 2 m/s 752 mmHg 84%
    21:00 +21°C° 0 mm 2 m/s 752 mmHg 86%
    22:00 +20°C° 0 mm 2 m/s 752 mmHg 88%
    23:00 +19°C° 0 mm 2 m/s 753 mmHg 91%

    27 Iulie, Sâmbătă

    Timp Temperatura Precipitaţii Vânt Presiune Umiditate
    00:00 +18°C° 0 mm 2 m/s 752 mmHg 92%
    01:00 +19°C° 0 mm 1 m/s 752 mmHg 92%
    02:00 +19°C° 0 mm 1 m/s 752 mmHg 93%
    03:00 +19°C° 0 mm 1 m/s 752 mmHg 92%
    04:00 +19°C° 0 mm 1 m/s 752 mmHg 91%
    05:00 +19°C° 0 mm 1 m/s 752 mmHg 90%
    06:00 +21°C° 0 mm 1 m/s 752 mmHg 85%
    07:00 +22°C° 0 mm 1 m/s 752 mmHg 80%
    08:00 +24°C° 0 mm 2 m/s 752 mmHg 75%
    09:00 +25°C° 0.1 mm 2 m/s 752 mmHg 70%
    10:00 +27°C° 0.1 mm 2 m/s 752 mmHg 65%
    11:00 +28°C° 0.1 mm 3 m/s 752 mmHg 60%
    12:00 +29°C° 0.1 mm 3 m/s 751 mmHg 57%
    13:00 +29°C° 0.1 mm 4 m/s 751 mmHg 54%
    14:00 +30°C° 0.1 mm 4 m/s 750 mmHg 51%
    15:00 +29°C° 0 mm 4 m/s 750 mmHg 52%
    16:00 +28°C° 0 mm 3 m/s 750 mmHg 54%
    17:00 +28°C° 0 mm 3 m/s 750 mmHg 56%
    18:00 +26°C° 0 mm 3 m/s 749 mmHg 64%
    19:00 +24°C° 0 mm 2 m/s 749 mmHg 72%
    20:00 +22°C° 0 mm 1 m/s 749 mmHg 80%
    21:00 +21°C° 0 mm 1 m/s 749 mmHg 83%
    22:00 +21°C° 0 mm 1 m/s 749 mmHg 85%
    23:00 +20°C° 0 mm 1 m/s 749 mmHg 88%

    28 Iulie, Duminică

    Timp Temperatura Precipitaţii Vânt Presiune Umiditate
    00:00 +19°C° 0 mm 2 m/s 749 mmHg 89%
    01:00 +18°C° 0 mm 2 m/s 749 mmHg 90%
    02:00 +18°C° 0 mm 2 m/s 748 mmHg 91%
    03:00 +18°C° 0 mm 2 m/s 749 mmHg 92%
    04:00 +18°C° 0 mm 3 m/s 749 mmHg 93%
    05:00 +18°C° 0 mm 3 m/s 749 mmHg 94%
    06:00 +19°C° 0 mm 3 m/s 749 mmHg 89%
    07:00 +19°C° 0 mm 4 m/s 749 mmHg 83%
    08:00 +19°C° 0 mm 4 m/s 749 mmHg 78%
    09:00 +19°C° 0 mm 4 m/s 750 mmHg 73%
    10:00 +19°C° 0 mm 4 m/s 750 mmHg 68%
    11:00 +20°C° 0 mm 4 m/s 751 mmHg 63%
    12:00 +20°C° 0 mm 4 m/s 751 mmHg 58%
    13:00 +21°C° 0 mm 4 m/s 751 mmHg 53%
    14:00 +22°C° 0 mm 4 m/s 751 mmHg 48%
    15:00 +21°C° 0 mm 4 m/s 751 mmHg 47%
    16:00 +21°C° 0 mm 4 m/s 751 mmHg 47%
    17:00 +21°C° 0 mm 4 m/s 751 mmHg 47%
    18:00 +19°C° 0 mm 3 m/s 751 mmHg 55%
    19:00 +17°C° 0 mm 2 m/s 751 mmHg 63%
    20:00 +15°C° 0 mm 2 m/s 752 mmHg 72%
    21:00 +14°C° 0 mm 2 m/s 752 mmHg 73%
    22:00 +13°C° 0 mm 2 m/s 752 mmHg 74%
    23:00 +12°C° 0 mm 1 m/s 752 mmHg 75%
    Arată mai mult